Wetbulb
58.07 58.28 58.30 58.19 58.00 58.39 58.33 58.58 58.78 58.84 58.97 58.90 58.82 58.71 58.96 59.16 58.92 57.67 52.67 59.84 63.01 71.04 71.06 64.20 62.85 63.61 67.92 67.90 70.75 70.33 61.15 57.81 58.74 58.56 60.80 65.73 64.26 66.15 68.43 66.94 67.84 70.59 67.31 67.94 69.90
57.83 57.85 57.57 57.30 57.36 57.75 57.90 57.98 58.41 58.52 58.56 58.32 58.49 58.49 58.73 59.39 57.40 54.96 63.75 69.90 70.76 70.61 60.85 62.97 60.98 64.31 64.76 65.86 67.94 65.12 60.27 59.99 64.64 64.39 62.71 64.77 63.38 64.71 65.22 66.46 67.54 66.80 67.97 68.74 69.50
57.32 57.01 56.84 56.97 57.10 57.42 57.49 57.66 57.75 57.88 58.04 58.00 58.13 58.43 58.73 59.78 56.32 55.86 70.05 70.14 70.96 69.89 64.55 66.24 66.00 65.43 62.66 66.13 66.57 65.41 61.00 64.88 65.66 67.19 66.43 64.91 64.04 64.81 64.68 64.08 67.11 64.73 65.70 67.50 68.23
56.59 56.68 56.75 56.63 56.77 57.06 56.94 56.99 57.17 57.13 57.26 57.30 57.95 58.48 58.80 58.94 52.55 62.81 70.06 69.65 69.47 62.21 65.23 65.60 64.02 61.24 61.54 61.53 64.81 61.39 61.38 63.62 66.91 68.05 66.82 65.38 66.29 65.07 65.98 65.67 69.10 67.90 67.59 67.85 67.58
56.64 56.47 56.38 56.36 56.60 56.62 56.75 56.49 56.78 56.72 56.88 57.24 57.76 58.33 58.31 55.66 53.79 67.05 68.00 67.47 59.23 58.83 63.96 64.44 61.16 60.17 59.36 60.10 61.66 61.37 60.21 64.47 66.33 67.71 67.38 67.88 65.72 66.21 62.80 66.48 69.59 68.88 67.95 67.64 67.56
56.33 56.28 56.28 56.21 56.30 56.45 56.62 56.49 56.31 56.37 56.45 57.00 57.61 58.11 56.13 52.06 61.89 66.14 62.00 59.01 56.72 60.62 65.55 64.21 60.44 62.08 60.31 58.17 58.88 64.50 64.20 64.29 64.87 66.69 67.82 65.79 65.40 66.98 65.41 69.18 68.47 67.99 67.22 67.49 67.39
56.06 56.08 56.24 56.05 56.22 56.43 56.26 55.91 55.71 55.92 56.44 57.34 57.70 58.40 57.42 54.87 62.47 65.05 62.14 59.62 58.21 62.13 64.10 63.68 62.00 60.67 59.76 57.23 60.80 61.99 60.91 64.53 64.15 65.69 66.02 67.49 63.59 64.58 68.97 69.88 68.01 67.09 67.21 67.12 67.45
55.61 55.65 56.03 55.96 56.43 56.03 55.74 55.91 55.31 56.97 58.44 58.50 57.94 58.38 54.78 60.41 61.06 63.38 63.25 59.54 60.13 62.60 64.77 63.65 62.61 59.10 58.41 59.92 59.61 58.33 61.37 59.23 62.98 63.67 66.38 65.67 59.49 66.02 68.79 68.08 66.46 66.42 66.55 66.69 67.31
56.49 56.57 56.20 56.01 55.81 55.36 54.99 55.10 56.07 59.23 60.78 58.87 57.10 57.87 54.04 63.53 57.78 62.71 63.73 59.05 61.12 63.22 64.10 62.06 59.63 56.45 57.12 54.96 55.27 56.65 55.55 57.95 59.35 63.55 65.07 64.74 59.54 65.29 68.76 67.40 65.96 65.90 65.88 66.26 66.64
56.78 56.60 55.77 56.26 55.43 54.56 54.72 54.70 57.52 57.84 58.90 59.37 60.72 55.52 56.20 55.79 58.23 61.77 63.41 61.48 59.01 60.15 58.95 57.31 55.69 52.97 53.70 54.00 49.50 52.71 54.55 58.04 58.41 60.92 63.33 61.68 61.48 64.19 67.25 66.69 66.28 65.93 66.12 66.44 66.12
56.79 56.42 56.34 55.05 54.60 54.10 54.45 58.20 56.91 57.34 56.37 53.76 54.86 55.65 56.93 59.53 61.09 60.88 60.75 58.75 58.37 57.44 52.78 55.21 50.55 48.87 51.56 54.65 56.91 57.25 56.76 57.75 58.90 60.95 61.28 57.00 56.13 62.09 66.46 66.25 65.62 65.95 65.06 65.75 66.41
56.66 56.34 55.89 55.24 54.79 54.02 54.73 58.32 56.18 57.64 52.71 55.62 56.35 55.52 57.79 58.74 55.57 58.32 60.75 55.14 54.57 51.62 54.22 52.67 48.88 52.57 53.51 54.25 53.89 55.62 55.12 57.23 59.14 60.89 60.87 57.82 57.04 62.20 66.00 66.43 66.67 65.99 65.52 66.54 66.99
55.53 55.99 55.24 54.51 53.88 53.80 58.21 58.73 59.34 58.72 51.55 54.67 54.71 53.95 56.59 58.91 55.56 55.51 58.01 56.07 52.81 51.26 51.55 50.55 51.90 54.15 52.85 52.17 51.97 53.00 53.73 57.59 55.46 57.70 62.54 61.22 56.46 53.19 64.98 66.89 67.52 67.59 68.03 67.67 67.61
56.13 55.57 54.75 53.29 50.75 59.55 58.22 58.94 59.50 58.43 47.88 50.43 50.63 53.28 56.88 57.58 54.63 58.81 59.04 56.33 54.84 51.64 51.99 51.06 54.40 52.84 52.27 50.95 53.01 50.65 56.39 56.91 58.78 56.92 52.53 59.67 52.09 60.11 63.35 62.80 61.77 65.21 67.51 68.08 68.57
55.87 54.82 53.92 52.47 56.50 57.51 58.79 59.07 59.34 56.27 38.95 50.01 50.91 57.10 55.80 53.17 54.71 55.64 59.10 57.02 53.08 51.77 51.84 49.96 51.56 51.58 51.04 51.49 54.80 53.19 57.43 57.87 58.09 56.56 54.40 54.80 54.16 57.47 60.89 59.30 56.59 61.45 67.46 68.10 68.42
55.36 54.59 52.97 56.03 56.90 59.22 59.62 59.46 57.18 45.22 38.84 46.43 50.62 50.56 51.72 52.84 52.91 54.97 55.81 57.39 57.05 53.96 53.54 52.21 55.17 53.75 52.98 54.12 57.06 57.31 55.35 55.27 56.80 55.07 49.11 53.87 52.88 55.21 58.17 57.05 59.40 61.14 67.96 67.93 68.67
53.95 52.96 53.05 59.94 57.37 61.31 59.82 56.29 45.87 41.25 50.88 46.04 47.24 50.54 50.17 49.48 50.34 52.59 51.81 51.03 50.09 48.29 48.84 52.14 52.33 53.60 54.93 52.46 55.82 55.30 53.68 47.60 47.77 47.60 46.71 54.29 53.12 55.74 57.75 58.87 62.84 64.06 67.64 66.15 66.07
52.49 51.56 55.61 59.14 62.22 61.19 58.48 52.47 41.85 45.52 47.99 50.54 49.04 48.95 47.68 49.50 49.61 51.42 50.65 49.35 52.04 52.04 50.46 47.77 46.62 52.73 54.29 53.32 52.99 53.43 53.48 48.09 43.49 44.60 47.26 53.19 50.66 55.04 62.06 63.55 63.69 66.48 67.37 68.23 64.18
51.27 60.07 59.37 62.55 63.03 61.59 55.62 45.53 41.54 46.61 49.73 48.38 48.85 45.87 46.72 48.62 49.30 49.01 49.42 49.65 50.46 52.73 48.74 48.71 48.31 54.69 54.43 55.81 55.55 53.54 51.39 55.18 49.73 50.54 47.67 51.55 55.58 59.03 61.79 62.44 64.28 67.24 67.46 66.50 68.87
57.97 59.60 60.80 60.62 61.36 59.40 50.87 41.45 46.34 50.37 49.74 49.09 45.43 47.58 44.31 46.28 46.42 47.57 48.05 51.40 50.43 53.02 54.40 52.02 45.84 52.86 53.40 55.46 56.46 54.95 56.24 50.04 51.66 44.83 43.94 49.99 51.63 52.70 57.79 61.56 64.62 64.55 65.38 66.41 67.55
58.21 56.83 60.89 61.49 60.31 53.89 43.53 44.63 49.29 50.94 51.35 49.11 48.12 46.05 47.14 46.16 47.72 47.63 48.47 51.02 51.89 51.91 53.45 52.05 50.06 49.41 51.78 50.61 51.03 52.25 51.31 52.53 52.59 50.99 46.24 45.87 48.76 59.23 60.12 62.46 62.33 62.38 63.03 64.13 65.92
59.52 52.34 59.09 59.08 52.98 53.48 48.77 49.72 47.44 50.15 51.34 49.50 49.28 49.14 47.59 48.08 47.58 46.18 47.25 49.55 52.04 52.36 49.89 52.99 49.90 46.51 48.19 51.99 53.42 52.56 52.80 52.87 48.54 48.39 50.55 47.76 49.77 57.75 61.23 62.98 62.09 61.57 62.21 63.18 64.19
56.44 54.63 58.92 58.40 45.34 49.22 50.02 48.92 50.17 49.78 49.33 48.63 47.04 48.16 49.34 47.25 46.16 48.50 49.02 50.81 51.94 51.05 50.44 52.73 49.21 44.94 46.22 49.09 51.40 49.81 51.87 52.44 53.07 53.07 48.36 46.35 48.59 59.48 60.51 60.80 61.88 61.07 61.93 62.59 62.99
56.74 50.27 54.38 55.26 53.54 50.69 48.78 47.66 46.60 49.78 49.79 50.45 48.59 50.22 47.07 46.44 48.81 47.29 47.64 49.51 51.35 51.34 52.10 54.37 49.51 46.93 42.13 46.17 49.83 47.50 50.01 51.67 51.29 48.01 49.41 48.22 51.23 56.71 57.33 57.80 60.23 61.23 62.06 62.12 62.27
55.12 49.65 53.24 48.49 49.55 50.12 50.36 48.02 45.48 45.93 49.78 51.03 49.10 48.96 46.88 45.14 45.95 46.63 48.55 48.81 50.12 50.04 52.05 50.65 45.66 48.13 49.04 49.45 49.12 48.88 48.54 49.79 49.34 50.60 48.67 50.59 52.84 54.74 57.52 57.56 58.66 60.12 60.55 60.16 60.01
53.40 53.08 53.52 51.24 51.42 50.45 47.61 48.06 46.80 46.89 49.03 46.83 47.89 49.28 49.45 47.82 48.45 44.88 48.25 48.69 48.14 50.90 50.58 51.22 46.89 48.62 46.67 47.89 47.98 47.08 49.11 49.75 49.72 50.13 51.53 52.33 51.06 55.65 57.52 58.27 57.90 59.21 59.22 58.64 58.96
58.58 58.47 55.42 49.84 50.41 49.29 47.85 48.21 47.47 49.53 48.86 49.99 49.26 48.57 49.04 49.68 51.75 52.49 52.82 52.39 52.52 50.55 49.26 49.39 47.85 46.99 43.02 46.97 45.46 43.01 47.12 47.87 48.29 50.32 53.16 49.50 52.22 56.14 55.98 56.46 56.34 57.00 57.24 56.81 57.43
MSLP
1016.78 1016.49 1016.24 1015.97 1015.67 1015.32 1015.05 1014.83 1014.57 1014.34 1014.10 1013.83 1013.57 1013.28 1012.98 1012.74 1012.36 1011.73 1009.42 1007.13 1007.17 1007.74 1007.84 1007.06 1006.98 1006.41 1005.63 1004.81 1004.73 1005.83 1006.21 1006.68 1006.09 1006.87 1007.41 1008.14 1008.58 1009.87 1008.75 1008.72 1006.98 1006.03 1007.15 1007.90 1008.79
1016.69 1016.47 1016.24 1015.98 1015.69 1015.30 1014.97 1014.73 1014.48 1014.25 1014.01 1013.81 1013.53 1013.24 1012.96 1012.71 1011.45 1009.08 1006.93 1006.92 1007.03 1007.33 1007.46 1006.16 1005.73 1005.31 1004.73 1004.17 1003.77 1005.39 1006.88 1005.52 1004.81 1005.45 1006.76 1007.92 1008.48 1009.53 1009.57 1008.25 1006.76 1006.54 1007.35 1008.36 1008.79
1016.55 1016.23 1016.07 1015.83 1015.59 1015.27 1014.92 1014.64 1014.33 1014.11 1013.87 1013.64 1013.41 1013.10 1012.94 1012.57 1010.23 1005.73 1004.38 1006.32 1006.83 1007.21 1006.60 1005.37 1004.67 1004.55 1004.07 1003.32 1003.10 1004.86 1003.48 1004.35 1004.11 1004.38 1006.14 1007.29 1008.46 1009.14 1009.24 1008.67 1007.15 1006.79 1007.57 1008.29 1008.85
1016.42 1016.21 1015.94 1015.67 1015.36 1015.05 1014.81 1014.52 1014.25 1013.95 1013.67 1013.46 1013.27 1013.03 1012.78 1011.90 1007.70 1005.65 1005.79 1006.25 1006.78 1006.84 1006.54 1004.88 1004.21 1003.86 1003.29 1002.53 1002.33 1004.57 1005.73 1004.49 1003.03 1003.96 1004.95 1006.25 1007.45 1008.60 1009.66 1008.58 1007.86 1007.54 1007.82 1008.18 1008.74
1016.23 1015.93 1015.77 1015.57 1015.23 1014.86 1014.51 1014.33 1014.03 1013.77 1013.49 1013.22 1013.02 1012.93 1012.31 1009.64 1005.97 1005.69 1006.12 1006.51 1006.69 1006.76 1005.91 1004.45 1003.70 1003.19 1002.67 1001.91 1001.85 1003.91 1005.64 1003.62 1002.25 1003.15 1004.53 1005.75 1006.06 1007.15 1009.61 1008.06 1008.43 1007.93 1007.91 1008.44 1008.80
1016.14 1015.75 1015.44 1015.15 1014.88 1014.64 1014.20 1013.92 1013.75 1013.47 1013.25 1013.01 1012.85 1012.85 1011.55 1007.28 1004.03 1005.15 1005.52 1006.00 1005.73 1005.95 1005.24 1003.89 1003.14 1002.80 1002.08 1001.42 1001.33 1001.60 1003.51 1002.86 1001.77 1002.42 1003.95 1004.85 1005.72 1006.07 1007.94 1007.97 1007.17 1007.52 1007.79 1008.50 1008.83
1015.84 1015.56 1015.26 1014.95 1014.47 1014.17 1013.91 1013.53 1013.28 1013.07 1012.87 1012.69 1012.70 1012.22 1009.57 1005.23 1003.71 1004.37 1004.98 1005.24 1005.21 1005.29 1004.35 1003.43 1002.93 1002.54 1002.22 1001.50 1001.10 1001.11 1001.81 1002.03 1001.30 1001.80 1003.17 1004.25 1005.23 1005.39 1006.16 1005.87 1006.63 1007.15 1007.79 1008.34 1008.81
1015.56 1015.23 1014.86 1014.67 1014.15 1013.77 1013.47 1013.11 1012.78 1012.51 1012.28 1012.37 1012.51 1011.34 1007.33 1003.62 1003.76 1003.91 1004.37 1004.75 1004.74 1004.82 1003.79 1003.29 1002.93 1002.65 1002.14 1001.45 1000.99 1001.02 1001.08 1000.86 1000.51 1001.10 1002.49 1004.07 1005.73 1005.70 1006.53 1006.86 1007.03 1007.34 1007.76 1008.11 1008.70
1015.42 1014.91 1014.49 1014.07 1013.81 1013.48 1013.04 1012.67 1012.28 1011.66 1011.26 1012.07 1011.80 1009.84 1005.37 1003.98 1003.90 1003.53 1003.65 1003.81 1004.04 1004.01 1003.51 1003.17 1003.39 1003.27 1002.48 1001.65 1000.78 1000.56 999.98 999.91 1000.41 1000.72 1002.94 1004.33 1006.92 1007.07 1006.93 1007.16 1007.47 1007.58 1007.83 1008.05 1008.63
1014.90 1014.61 1014.13 1013.68 1013.33 1013.17 1012.84 1012.48 1011.60 1011.67 1011.31 1010.98 1009.50 1008.11 1004.51 1002.95 1003.05 1003.10 1003.14 1003.23 1003.60 1003.51 1003.56 1003.48 1003.94 1003.24 1002.20 1001.27 999.89 999.53 999.54 999.29 1000.58 1001.06 1002.86 1005.41 1007.42 1007.96 1007.69 1007.36 1007.49 1007.64 1007.92 1008.18 1008.59
1014.35 1013.97 1013.66 1013.37 1013.01 1012.82 1012.57 1011.42 1011.21 1010.00 1008.89 1006.36 1005.24 1003.71 1002.07 1002.04 1002.50 1002.82 1003.16 1003.28 1003.43 1003.33 1003.42 1003.87 1003.44 1002.03 1001.27 1000.59 999.65 998.87 998.99 999.59 1001.11 1002.33 1004.12 1005.26 1006.71 1007.99 1008.09 1008.16 1007.81 1007.64 1007.97 1008.34 1008.55
1014.13 1013.71 1013.22 1013.02 1012.88 1012.83 1012.49 1009.07 1006.37 1005.68 1005.36 1005.03 1004.02 1003.05 1001.54 1001.71 1002.30 1002.65 1002.96 1003.18 1003.14 1003.14 1003.39 1002.95 1002.27 1001.21 1000.81 1000.12 999.60 998.79 998.41 999.25 1001.10 1002.26 1003.25 1005.99 1007.78 1008.11 1007.43 1007.83 1008.30 1008.21 1008.34 1008.79 1009.00
1013.80 1013.52 1013.22 1012.81 1012.58 1012.31 1009.65 1006.91 1006.01 1005.26 1004.33 1002.54 1003.04 1002.13 1001.30 1001.70 1002.02 1002.40 1002.98 1002.73 1002.79 1002.81 1002.61 1001.78 1000.99 1000.87 1000.07 999.45 999.07 998.49 998.06 999.41 1001.15 1003.60 1001.55 1004.15 1008.12 1008.13 1007.27 1007.37 1008.51 1008.58 1008.57 1008.80 1009.01
1013.70 1013.23 1013.12 1012.77 1012.59 1008.59 1007.07 1006.05 1005.44 1005.02 1003.77 1001.77 1002.05 1001.70 1001.73 1001.57 1001.57 1001.91 1002.64 1002.43 1002.06 1002.08 1002.02 1001.49 1000.28 999.97 999.58 999.06 998.71 998.11 997.93 998.23 1000.21 1001.25 1000.57 1001.43 1003.96 1005.94 1006.69 1008.19 1009.17 1008.40 1008.74 1008.55 1008.79
1013.44 1013.17 1013.05 1013.03 1011.10 1007.56 1005.97 1005.68 1005.40 1004.97 1002.46 1001.32 1000.93 1000.65 1001.12 1001.70 1000.87 1001.35 1002.41 1002.18 1001.44 1001.43 1001.36 1000.57 1000.03 999.37 999.23 998.99 998.66 998.23 997.79 998.78 999.67 1000.16 999.54 999.96 1002.42 1004.08 1005.61 1008.10 1009.53 1008.35 1007.71 1008.07 1008.07
1013.06 1012.68 1012.80 1011.77 1010.66 1007.51 1005.74 1005.51 1005.26 1004.65 1001.79 1000.55 1000.88 1000.73 1001.00 1001.23 1000.71 1001.10 1002.09 1002.44 1001.59 1001.08 1000.84 1000.17 1000.03 999.41 999.21 999.09 998.79 998.60 998.13 998.12 998.78 998.99 998.72 999.09 1000.52 1002.88 1005.37 1007.87 1008.03 1007.56 1007.13 1007.84 1008.02
1012.77 1012.36 1012.46 1009.82 1007.57 1005.97 1005.78 1005.44 1004.78 1003.63 1002.49 1001.27 1000.81 1000.82 1000.69 1000.65 1000.55 1001.21 1001.98 1002.19 1001.61 1001.19 1000.55 1000.43 999.59 999.62 999.81 999.51 999.09 998.91 998.25 998.07 998.71 998.45 998.22 998.56 999.94 1003.15 1005.45 1007.42 1005.82 1006.23 1006.11 1007.84 1008.79
1012.13 1011.96 1009.85 1008.97 1007.03 1006.03 1005.82 1005.58 1005.44 1006.15 1003.07 1001.74 1000.67 1000.73 1000.57 1000.41 1000.30 1001.19 1001.79 1001.60 1001.65 1000.87 1000.06 1000.16 999.78 999.84 999.69 999.30 998.81 998.92 998.26 998.00 998.22 998.41 998.63 998.63 1000.14 1002.07 1003.19 1003.87 1004.13 1004.87 1005.07 1006.88 1007.62
1011.54 1009.49 1008.51 1006.64 1006.68 1006.19 1006.19 1007.67 1008.51 1005.90 1004.35 1002.60 1001.20 1000.86 1000.56 1000.22 1000.47 1001.19 1001.52 1001.41 1001.28 1000.81 1000.60 1000.06 999.53 999.48 999.55 999.53 999.28 999.12 998.65 998.17 997.95 998.33 998.67 1000.08 1002.16 1002.97 1003.45 1004.12 1004.69 1006.03 1007.29 1008.58 1008.63
1010.84 1008.01 1005.88 1005.01 1005.00 1005.76 1008.00 1009.88 1008.45 1005.75 1004.96 1003.84 1002.53 1001.89 1000.83 1000.51 1001.09 1001.34 1001.45 1001.53 1001.04 1001.48 1001.93 1001.53 1000.61 999.39 1000.34 1000.34 1000.07 999.82 999.43 998.87 998.17 998.54 998.79 1000.63 1001.82 1002.74 1003.60 1004.57 1005.22 1007.36 1008.67 1009.41 1010.31
1010.10 1006.75 1004.85 1004.43 1004.41 1006.83 1009.85 1008.30 1006.18 1006.16 1005.44 1004.70 1003.71 1003.81 1002.19 1002.11 1001.84 1001.84 1001.99 1002.95 1003.35 1002.93 1002.89 1002.69 1002.19 1001.34 1000.96 1000.87 1000.64 1000.69 1000.17 999.35 998.89 998.90 999.41 1001.80 1003.11 1003.07 1004.12 1005.82 1006.61 1007.93 1009.99 1010.76 1011.59
1008.10 1005.59 1004.47 1004.47 1004.61 1004.48 1005.87 1006.29 1006.56 1006.01 1005.64 1005.26 1005.41 1005.35 1004.93 1004.32 1003.24 1004.02 1004.08 1004.55 1005.12 1004.68 1003.84 1002.90 1002.03 1001.62 1001.11 1001.23 1001.26 1000.50 1000.19 999.84 999.56 999.62 1000.13 1003.50 1005.91 1006.18 1005.85 1006.94 1008.18 1009.22 1010.27 1011.63 1012.37
1007.79 1005.00 1004.25 1004.05 1005.60 1005.04 1005.89 1006.40 1006.56 1005.95 1006.09 1005.85 1005.75 1006.23 1005.96 1006.11 1005.45 1005.70 1006.22 1006.36 1005.81 1005.08 1005.51 1004.73 1002.71 1002.33 1001.59 1002.00 1001.69 1001.28 1000.62 999.92 999.69 999.87 1001.30 1004.10 1006.65 1008.25 1009.37 1008.79 1009.11 1010.07 1010.61 1011.11 1012.13
1008.13 1004.99 1004.19 1004.14 1004.53 1004.73 1005.45 1005.99 1006.56 1007.20 1006.94 1006.85 1006.83 1006.43 1006.91 1006.73 1006.49 1006.49 1006.24 1006.53 1006.31 1005.87 1006.30 1005.64 1004.28 1003.98 1004.14 1003.08 1001.98 1001.88 1001.20 1000.61 1000.41 1000.59 1000.81 1002.97 1006.47 1007.81 1008.90 1008.82 1009.75 1010.86 1011.30 1011.43 1011.93
1007.65 1006.49 1006.32 1005.45 1005.72 1005.99 1006.23 1006.59 1006.77 1006.96 1007.22 1007.36 1007.25 1007.04 1006.97 1007.37 1007.00 1006.93 1006.37 1006.71 1006.47 1006.51 1005.92 1005.64 1005.11 1004.89 1004.58 1004.09 1002.91 1001.88 1001.80 1001.40 1001.70 1002.13 1004.08 1006.12 1007.00 1008.40 1009.03 1009.91 1010.94 1011.85 1012.51 1012.50 1012.82
1008.15 1007.01 1006.43 1006.46 1006.65 1006.18 1007.16 1007.48 1007.61 1007.87 1007.65 1007.68 1007.58 1007.35 1007.58 1007.91 1008.59 1009.23 1007.19 1006.63 1006.49 1006.67 1006.35 1006.17 1005.90 1005.97 1005.39 1005.11 1004.46 1003.13 1002.19 1002.19 1002.70 1003.21 1004.81 1006.80 1009.26 1009.79 1010.41 1011.03 1012.10 1012.68 1013.39 1013.56 1013.74
1008.81 1008.03 1007.21 1007.11 1006.34 1006.79 1007.89 1008.29 1008.66 1008.89 1009.13 1009.00 1008.89 1008.63 1008.37 1008.99 1009.29 1009.79 1007.91 1007.72 1007.93 1007.44 1007.00 1007.16 1006.75 1006.71 1006.26 1005.88 1005.81 1005.07 1004.07 1003.99 1004.38 1004.71 1005.75 1007.64 1010.24 1009.95 1010.60 1011.68 1012.72 1013.66 1014.34 1014.61 1014.70
Wind_Speed
13 13 14 13 13 12 13 13 13 13 13 13 13 12 12 12 12 10 13 9 11 12 7 12 17 19 17 17 17 8 3 2 7 11 8 6 5 2 10 6 5 8 25 23 24
13 14 14 14 14 14 13 13 13 13 13 13 13 13 12 11 14 19 14 7 9 12 14 18 20 19 13 18 15 7 1 6 11 9 14 11 7 7 5 4 9 17 25 26 24
15 14 13 14 14 14 14 14 14 13 13 13 13 13 12 12 12 7 16 16 12 11 19 18 17 15 17 17 15 8 4 6 10 17 20 18 15 11 5 8 13 25 28 26 24
15 15 15 14 14 14 15 15 15 14 13 13 13 13 13 13 4 7 10 12 11 14 19 21 17 18 17 18 13 8 12 16 17 12 21 20 20 14 10 10 9 25 26 25 22
15 15 16 15 16 16 14 14 14 16 14 13 12 11 9 10 14 10 10 9 11 15 19 20 19 17 17 16 10 11 11 15 4 13 21 20 19 15 14 15 20 25 25 23 20
16 16 16 16 15 16 16 14 15 15 16 14 11 9 7 15 8 11 11 13 14 18 18 19 14 15 17 17 11 9 26 22 8 15 19 13 10 13 15 18 21 24 23 21 20
15 15 15 15 16 17 17 15 15 16 14 12 9 8 12 17 3 12 12 14 16 19 18 17 15 14 9 15 12 8 14 15 9 16 19 19 14 10 15 15 20 23 22 20 19
15 15 14 16 15 17 17 14 17 15 16 12 8 9 10 10 9 8 12 14 17 19 20 12 15 12 16 13 9 14 13 17 13 16 18 7 9 15 14 13 21 24 21 19 19
15 14 15 15 16 16 16 16 17 15 8 9 8 10 11 8 12 11 13 15 16 16 16 9 3 12 15 16 12 13 13 16 13 15 23 13 8 13 10 15 20 21 20 19 18
14 14 16 13 13 14 13 15 6 4 7 10 13 10 11 12 15 14 11 11 16 14 14 8 7 13 16 14 14 17 20 13 11 12 21 16 16 17 13 16 17 19 19 17 19
14 13 13 15 12 10 13 6 7 7 13 12 7 14 13 12 15 14 15 14 15 13 12 14 12 16 20 20 20 18 18 18 14 18 12 13 12 11 14 14 16 15 16 15 14
15 13 11 12 10 9 7 9 10 9 7 22 19 18 10 17 17 16 16 13 13 15 17 13 17 17 19 19 21 24 19 7 4 18 19 22 15 17 21 18 16 15 11 13 7
16 13 11 9 10 6 12 16 7 8 8 13 17 12 7 18 15 18 17 18 18 17 18 19 14 20 17 18 20 23 18 17 14 24 17 24 18 18 15 19 15 15 15 17 14
15 13 11 10 3 12 15 2 9 3 8 17 17 12 13 9 14 19 19 16 10 16 18 19 18 19 18 18 15 17 19 14 24 17 11 21 14 32 29 16 5 4 17 17 20
14 14 12 6 13 11 7 8 8 5 7 10 16 11 14 17 14 22 17 18 14 15 15 17 17 12 18 16 14 15 17 14 14 18 15 16 11 13 19 24 22 22 20 21 20
15 10 12 7 8 15 12 10 8 7 2 8 7 11 15 16 19 19 17 18 14 13 17 15 15 13 15 13 12 21 14 15 8 12 13 9 15 14 10 5 26 33 24 19 14
15 10 7 10 12 11 9 8 9 6 3 7 15 15 18 18 13 17 17 19 14 10 15 14 18 13 10 15 19 18 16 9 10 10 9 15 9 7 18 7 19 4 21 22 7
17 10 12 11 12 10 7 9 9 6 12 9 8 15 17 18 15 15 17 16 17 16 12 13 14 11 12 21 16 16 16 9 14 10 11 18 13 10 15 6 13 22 15 28 28
20 8 7 14 16 3 6 7 6 10 7 13 13 15 16 17 14 14 17 16 17 14 8 12 17 19 18 16 15 19 18 18 16 20 15 10 13 9 10 12 10 23 19 18 3
6 10 13 3 4 2 9 4 15 9 8 9 14 14 16 14 11 15 18 4 9 3 8 9 16 17 9 9 7 14 13 17 14 12 14 13 18 15 16 17 18 21 19 18 13
6 3 4 9 6 11 2 11 7 3 9 9 13 12 8 5 12 13 8 4 3 7 4 13 8 9 11 13 12 11 13 13 17 15 9 10 2 16 17 16 16 18 15 13 14
12 7 4 6 8 9 5 9 4 6 4 3 6 6 11 7 3 20 4 8 6 8 9 13 9 11 13 11 16 18 17 16 11 18 5 9 2 14 13 17 16 14 15 14 13
7 3 3 8 6 4 5 8 10 5 5 3 1 1 14 10 6 10 7 1 3 6 4 10 7 5 13 5 5 8 16 17 19 17 7 11 7 5 10 16 16 14 12 13 13
8 2 4 3 7 8 3 6 7 4 5 4 4 7 5 4 5 5 4 1 3 8 5 6 11 9 7 12 11 18 17 13 15 12 15 16 18 19 19 16 17 15 13 14 14
5 6 5 9 9 9 10 5 2 5 3 4 5 6 2 8 3 4 3 3 2 3 2 5 9 8 3 10 16 14 18 10 11 14 12 13 19 13 17 16 14 15 12 12 13
7 6 3 4 3 4 5 9 10 5 10 3 2 4 3 11 6 4 8 7 3 3 1 4 7 4 7 4 11 15 17 12 11 12 17 12 17 14 14 18 11 14 12 11 12
5 3 8 5 4 8 7 7 5 2 4 7 6 3 5 11 9 7 9 9 8 4 2 4 7 3 10 5 5 8 8 4 4 6 16 16 13 15 16 15 12 11 10 10 11
Wind_Direction
337 334 334 335 332 329 327 327 327 327 326 324 321 314 310 304 294 236 247 232 216 187 232 207 211 220 209 237 205 147 291 210 147 173 125 133 117 53 298 300 286 160 146 139 148
337 336 334 332 329 326 325 323 323 323 323 320 316 311 308 309 275 260 239 158 132 168 213 208 200 210 217 232 229 117 44 250 130 157 136 131 111 114 302 327 157 130 131 142 150
334 331 330 329 328 325 324 322 319 319 318 317 313 310 307 299 271 255 204 155 157 186 219 221 214 208 230 230 217 123 209 147 114 121 140 146 141 171 234 270 138 142 142 151 156
331 329 327 325 323 321 320 317 314 312 311 310 308 307 311 274 274 72 90 137 157 204 225 236 216 214 235 236 227 77 317 275 129 129 149 154 157 171 174 322 287 140 147 149 158
326 324 322 320 318 315 313 312 310 306 303 301 301 308 294 222 252 126 143 148 187 200 215 231 218 216 229 247 226 106 329 285 136 130 143 168 184 139 129 208 241 148 150 152 156
321 320 319 316 315 312 309 308 305 300 295 288 288 299 250 255 91 129 175 168 198 194 215 230 220 222 240 260 239 166 184 245 171 120 132 158 153 139 150 210 157 148 152 159 157
319 318 317 313 312 309 306 304 299 294 285 273 265 253 262 246 335 141 178 189 202 199 217 222 231 228 252 268 255 234 208 238 214 140 155 146 141 123 138 132 143 152 157 161 162
322 318 314 309 309 307 303 299 297 288 274 254 236 239 262 237 255 174 170 189 199 207 237 213 242 273 247 275 228 230 232 219 183 175 138 108 142 134 133 141 151 158 162 159 161
315 310 309 309 307 305 302 300 297 292 246 200 215 223 248 109 211 200 189 181 190 214 229 217 264 240 242 252 227 208 223 210 212 161 141 141 96 317 133 152 162 163 164 161 158
310 308 310 303 306 306 301 290 296 286 198 199 262 215 242 204 191 190 194 186 187 196 207 191 213 232 235 220 221 207 229 201 178 174 122 122 149 201 185 159 165 168 166 164 163
312 311 313 313 309 308 306 199 203 181 213 222 187 227 143 183 170 172 173 180 196 195 201 206 219 212 217 218 240 218 224 165 156 264 124 137 133 209 171 180 172 171 170 158 172
314 315 310 311 307 302 264 256 28 338 269 228 265 220 264 160 167 183 177 181 193 196 208 187 226 228 226 228 236 255 237 162 32 311 104 146 151 230 169 178 178 177 167 150 186
324 318 315 317 323 260 237 284 317 303 272 210 215 221 250 161 181 180 191 202 189 209 207 234 216 234 220 233 223 240 258 157 144 269 158 152 133 224 180 156 175 171 192 170 184
318 323 322 330 286 242 233 253 275 330 274 164 193 208 200 211 204 176 202 202 181 213 223 231 245 199 237 236 226 231 237 232 165 220 201 188 163 180 173 133 122 255 181 187 186
321 321 311 283 322 292 354 296 348 262 268 136 180 170 189 206 184 173 189 217 239 219 222 214 234 217 226 219 209 241 231 143 215 203 229 186 139 179 161 153 153 218 214 176 186
311 309 310 214 223 258 293 296 251 237 323 125 116 173 183 204 218 160 176 234 235 244 232 244 207 233 232 225 214 240 280 235 215 213 232 193 231 152 155 202 182 198 195 172 173
307 293 265 304 282 317 318 276 240 278 317 124 167 188 195 200 171 158 190 206 225 219 219 214 243 217 224 221 232 230 251 193 211 210 230 207 194 112 130 135 237 110 172 151 165
303 298 229 240 282 268 269 270 311 264 315 287 219 183 202 197 192 166 188 198 223 222 202 200 209 214 199 228 209 214 237 203 210 218 228 256 128 149 138 132 151 186 143 159 162
308 232 241 234 219 298 292 31 213 273 288 315 308 186 201 200 157 186 199 214 209 234 292 216 236 189 197 232 251 194 236 229 207 220 227 109 90 113 142 128 119 69 72 48 210
296 282 246 327 245 184 56 167 257 335 299 270 283 333 212 175 203 192 197 155 195 96 2 251 302 158 170 276 274 269 233 239 251 277 245 144 156 149 162 104 87 68 57 71 43
236 238 299 288 254 87 167 239 100 48 317 344 18 345 297 317 224 202 107 75 29 343 283 290 243 200 187 211 227 216 249 256 258 249 227 152 358 145 140 113 102 92 80 57 63
281 230 22 279 331 302 92 23 285 359 309 94 25 35 1 332 86 45 32 14 346 278 292 268 305 162 200 200 224 249 228 240 239 251 310 52 76 337 101 102 94 83 83 71 52
274 51 55 267 132 262 105 93 17 61 7 315 140 201 321 47 349 66 251 32 331 246 34 336 258 199 153 176 229 245 246 253 245 254 158 156 169 158 121 98 96 86 79 66 59
277 328 91 48 9 7 36 72 106 19 60 35 33 284 250 297 297 157 140 95 53 32 315 284 294 57 323 317 280 213 238 244 266 277 269 137 157 143 117 106 105 99 89 78 60
296 49 342 13 20 33 12 360 57 75 116 312 203 264 72 306 267 317 158 122 234 74 245 267 265 319 153 290 327 211 222 228 250 274 80 98 142 135 122 118 111 107 95 83 70
340 347 111 30 271 196 115 30 52 55 348 95 287 298 177 230 15 269 279 233 171 142 331 298 301 322 274 260 312 323 197 210 238 272 136 111 92 103 109 109 121 114 108 90 78
359 289 275 155 309 45 43 35 48 58 59 33 359 278 246 56 342 192 346 316 148 297 266 301 273 215 252 210 309 276 286 159 274 290 128 138 165 129 126 112 101 100 95 91 79